{"data":{"norad_id":64803,"intl_designator":"2025-150P","name":"STARLINK-34620","alt_names":[],"object_type":"PAYLOAD","status":"ACTIVE","operator":null,"country":"US","launch_date":"2025-07-16","launch_site_code":"AFWTR","launch_vehicle":null,"mission":null,"orbit_class":"UNKNOWN","rcs_meters":null,"size_class":null,"mass_kg":null,"dimensions":null,"purposes":["comms"],"wikipedia_slug":null,"has_3d_model":false,"image_url":null,"decayed_at":null,"tle_current":{"epoch":"2026-05-25T03:15:29.339136Z","epoch_age_seconds":60771,"freshness":"FRESH","line1":"1 64803U 25150P   26145.13575624  .00002705  00000+0  23436-3 0  9999","line2":"2 64803  70.0006 301.8645 0002881 263.9218  96.1613 14.98336260 47967","mean_motion":14.9833626,"eccentricity":0.0002881,"inclination_deg":70.0006,"raan_deg":301.8645,"arg_perigee_deg":263.9218,"mean_anomaly_deg":96.1613,"bstar":0.00023436,"rev_number":4796,"period_min":96.106597593787,"perigee_km":570.0341874835,"apogee_km":574.03887747291,"semimajor_km":6950.1735324782,"source":"CELESTRAK","updated_at":"2026-05-25T13:38:20.566396Z"}}}